Flag for Rwanda Weather past 2 weeks in Kigali, Rwanda

Now
77 °F

Scattered clouds.


Feels Like: 79 °F
Forecast: 60 / 80 °F
Wind: 6 mph from East

Location: Kigali Airport

Current Time: Dec 18, 2014 at 4:31:21 PM

Latest Report: Dec 18, 2014 at 4:00 PM


Visibility: N/A

Pressure: 30.07 "Hg

Humidity: 69%

Dew point: 66 °F

Location of KigaliLocation

Historic Weather in Kigali — Graph

°F

Kigali temperature yesterday

Maximum temperature yesterday: 82 °F (at 11:30 AM)
Minimum temperature yesterday: 64 °F (at 5:30 AM)
Average temperature yesterday: 70 °F

Past Weeks' High & Low Weather Summary

 TemperatureHumidityPressure
High86 °F (Dec 7, 2:00 PM)100% (Dec 4, 1:30 AM)30.21 "Hg (Dec 4, 1:30 AM)
Low59 °F (Dec 5, 5:00 AM)42% (Dec 14, 3:00 PM)29.98 "Hg (Dec 7, 3:00 PM)
Average71 °F80%30.10 "Hg
* Reported Dec 3 3:00 PM — Dec 18 3:00 PM, Kigali, Weather by CustomWeather, © 2014

Note: Actual official high and low records may vary slightly from our data, if they occured in-between our weather recording intervals... More about our weather records

Advertising

Kigali weather history for previous 24 hours

 ConditionsComfort  
Time TempWeatherWind HumidityBarometerVisibility
3:00 PM
Dec 18
79 °FPartly sunny.13 mph61%30.07 "HgN/A
2:00 PM79 °FPartly sunny.6 mph58%30.07 "HgN/A
1:00 PM81 °FPartly sunny.3 mph62%30.09 "HgN/A
12:30 PM79 °FPartly sunny.7 mph65%30.12 "HgN/A
12:00 PM79 °FScattered clouds.7 mph65%30.15 "HgN/A
11:30 AM77 °FScattered clouds.3 mph69%30.15 "HgN/A
11:00 AM75 °FScattered clouds.3 mph74%30.18 "HgN/A
10:30 AM73 °FScattered clouds.7 mph78%30.18 "HgN/A
10:00 AM72 °FBroken clouds.3 mph78%30.21 "HgN/A
9:30 AM70 °FPartly sunny.No wind88%30.21 "Hg5 mi
9:00 AM70 °FPartly sunny.No wind88%30.21 "Hg4 mi
8:30 AM66 °FPartly sunny.No wind94%30.21 "Hg4 mi
8:00 AM64 °FPartly sunny.5 mph100%30.18 "Hg4 mi
7:30 AM64 °FPartly sunny.3 mph100%30.18 "Hg5 mi
6:30 AM63 °FPartly sunny.3 mph100%30.15 "Hg5 mi
5:30 AM61 °FPassing clouds.No wind100%30.12 "HgN/A
4:30 AM63 °FPassing clouds.No wind100%30.09 "HgN/A
3:30 AM63 °FPassing clouds.No wind100%30.09 "HgN/A
3:00 AM63 °FPassing clouds.No wind100%30.12 "HgN/A
2:30 AM63 °FPassing clouds.No wind100%30.12 "HgN/A
2:00 AM63 °FPassing clouds.No wind100%30.12 "HgN/A
1:30 AM63 °FPassing clouds.No wind100%30.12 "HgN/A
12:30 AM64 °FPassing clouds.6 mph100%30.15 "HgN/A
12:00 AM64 °FPassing clouds.No wind100%30.15 "HgN/A
11:30 PM
Dec 17
64 °FPartly cloudy.No wind100%30.18 "HgN/A
11:00 PM64 °FPartly cloudy.No wind100%30.18 "HgN/A
10:30 PM64 °FPartly cloudy.No wind100%30.18 "HgN/A
10:00 PM64 °FPartly cloudy.3 mph100%30.18 "HgN/A
9:30 PM66 °FPartly cloudy.3 mph100%30.18 "HgN/A
9:00 PM66 °FPartly cloudy.3 mph100%30.21 "HgN/A
8:30 PM66 °FPartly cloudy.No wind100%30.18 "HgN/A
8:00 PM66 °FPassing clouds.No wind100%30.18 "HgN/A
7:30 PM66 °FPassing clouds.No wind100%30.18 "HgN/A
7:00 PM66 °FPassing clouds.No wind100%30.15 "Hg5 mi
6:30 PM66 °FThunderstorms. Passing clouds.No wind100%30.12 "Hg5 mi
6:00 PM66 °FLight rain. Partly sunny.6 mph100%30.12 "HgN/A
5:30 PM66 °FLight rain. Partly sunny.No wind94%30.12 "HgN/A
5:00 PM66 °FLight rain. Partly sunny.7 mph100%30.09 "HgN/A
4:30 PM64 °FLight rain. Partly sunny.No wind100%30.07 "HgN/A
4:00 PM64 °FThunderstorms. Partly sunny.6 mph100%30.07 "Hg5 mi
Weather by CustomWeather, © 2014

See weather overviewHow to use our weather pages